STARLINK-1474 (45738 NORAD) Tracking and Keplerian Element Data

This shows tracking and keplerian element data for the satellite.

Feedback or suggestion? Click here.




ElementValue
Catalog45738
NameSTARLINK-1474
Epoch Orbit549
Epoch Day192.16668981
Epoch Year2020
RAAN166.2344
Inclination53.0031
Eccentricity0.0001325
Argument of Perigee87.8443
Mean Anonmoly91.4328
Mean Motion15.44079938
Decay Rate-0.01176995
L11 45738U 20038J 20192.16668981 -.01176995 00000-0 -27806-1 0 9993
L22 45738 53.0031 166.2344 0001325 87.8443 91.4328 15.44079938 5497

Live tracking and technical data element details for STARLINK-1474 (NORAD 45738). STARLINK-1474 can be tracked NOW for your location showing map with azimuth and elevation plus other details from your city location.

Track the satellite on the map from your city or location and see movement details for azimuth, elevation, latitude, longitude, range, height, and movement on the map or in text.







IsCatalogInMostPopularTable: catalog: 45738, numindb: 4
Update: records affected: 1



GetName: 45738 STARLINK-1474

Hit Count: updated at: Fri, 10 Jul 2020 17:01:53 GMT